User: anonymous   Login
Location: Unspecified
(0.0000°N, 0.0000°E)
Time: 21:31:23
(UTC+00:00)
Language:

Tiros 1 - Orbit

View from above orbital plane
View from above orbital plane
View from above satellite
View from above satellite

Ground track
Ground track

The orbit data is extracted from the following two-line orbital elements,

1    29U 60002B   17086.45662505 -.00000054 +00000-0 +22922-4 0  9995
2    29 048.3791 107.1572 0024702 234.3436 125.5176 14.74151285044731
Epoch (UTC): 27 March 2017 10:57:32
Eccentricity: 0.0024702
inclination: 48.3791°
perigee height: 630 km
apogee height: 665 km
right ascension of ascending node: 107.1572°
argument of perigee: 234.3436°
revolutions per day: 14.74151285
mean anomaly at epoch: 125.5176°
orbit number at epoch: 4473

The dashed part of the orbit path shows where the satellite is in the earth's shadow,  

DLR